[[{"header":{"parameterUnit":"m.s-1","parameterCategory":1,"la1":30.2991,"la2":30.254,"lo1":-89.0895,"lo2":-89.0444,"dy":0.0017,"dx":0.0017,"nx":28,"ny":28,"refTime":"2025-03-17T03:00:00:Z","depth":0,"parameterNumber":2,"parameterNumberName":"U-component_of_WINDS"},"data":[0,0,0,0,0,0,0,0,0,0,0,0,0,0,0,0,0,0,0,0,0,0,0,0,0,0,0,0,0,0,0,0,0,0,0,0,0,0,0,0,0,0,0,0,0,0,0,0,0,0,0,0,0,0,0,0,0,0,3.4616,3.4617,0,3.4718,3.4719,3.472,3.468,3.4677,3.4675,3.4673,3.4778,3.4782,3.4787,0,0,0,0,0,0,0,0,0,0,0,0,0,3.4389,3.4393,3.4616,3.4617,3.4619,3.4718,3.4719,3.472,3.468,3.4677,3.4674,3.4672,3.4776,3.4782,3.4788,0,0,0,0,0,0,0,0,0,0,0,0,0,3.4489,3.4395,3.4616,3.4611,3.4611,3.4717,3.4719,3.4721,3.4681,3.4677,3.4674,3.467,3.4774,3.4781,3.4789,3.4907,0,0,3.4812,3.4815,0,0,0,0,0,0,0,0,3.4483,3.4497,3.461,3.4611,3.4612,3.4682,3.4677,3.4783,3.4682,3.4654,3.4673,3.4668,3.4749,3.4758,3.4785,3.4911,3.4916,3.4812,3.4817,3.482,3.4822,0,0,0,0,0,0,0,3.4476,3.4493,3.4656,3.4612,3.4613,3.4604,3.4614,3.4697,3.472,3.4656,3.4654,3.4666,3.4749,3.4778,3.4787,3.4917,3.4812,3.4819,3.4823,3.4826,3.5147,3.5151,0,0,0,0,0,0,3.4469,3.4487,3.4653,3.4659,3.4537,3.4611,3.4622,3.4663,3.4719,3.4724,3.4669,3.4664,3.4767,3.4779,3.4791,3.4933,3.482,3.4827,3.4831,3.5143,3.5148,3.5152,0,0,0,0,0,0,3.4464,3.4484,3.4649,3.4573,3.4593,3.4618,3.4665,3.4667,3.4696,3.4729,3.4733,3.4695,3.4765,3.478,3.4878,3.4936,3.483,3.4837,3.5138,3.5144,3.515,3.5218,0,0,0,0,0,0,3.4458,3.4483,3.4527,3.4574,3.4597,3.4735,3.4669,3.4672,3.4709,3.4704,3.4754,3.4759,3.4763,3.4867,3.4886,3.4945,3.4843,3.5133,3.5141,3.5148,3.5211,3.5226,3.5239,0,0,0,0,0,3.445,3.4543,3.453,3.455,3.4653,3.4738,3.4751,3.4754,3.4714,3.476,3.4781,3.4757,3.4927,3.4878,3.4898,3.496,3.5129,3.5139,3.5147,3.5205,3.5223,3.5238,0,0,0,0,0,0,3.4502,3.4549,3.4535,3.4645,3.4688,3.4731,3.4788,3.4773,3.4828,3.482,3.4821,3.4832,3.4934,3.4957,3.4901,3.5078,3.5022,3.5036,3.5059,3.5076,3.509,3.5082,3.4849,0,0,0,0,0,3.4527,3.4591,3.4628,3.4722,3.4744,3.4763,3.48,3.4798,3.4842,3.486,3.4888,3.4932,3.4996,3.5037,3.5097,3.5214,3.5225,3.5267,3.5281,3.5292,3.5304,3.5368,3.5387,3.5182,3.5181,3.5181,0,0,3.4578,3.4611,3.4651,3.4733,3.4766,3.4833,3.4778,3.4851,3.4901,3.4871,3.4965,3.4988,3.5037,3.5146,3.5195,3.5168,3.5363,3.5303,3.5312,3.5318,3.5379,3.5399,3.5416,3.5188,3.5187,3.5186,0,0,3.4705,3.4736,3.4818,3.4852,3.4903,3.4915,3.4935,3.498,3.4994,3.5089,3.5068,3.5128,3.5236,3.5273,3.5306,3.5448,3.5429,3.5468,3.554,3.5603,3.5619,3.5633,3.5685,3.5703,3.5479,3.5479,3.5479,0,3.4762,3.4862,3.4862,3.4938,3.4975,3.4951,3.5034,3.5067,3.5135,3.5161,3.513,3.5267,3.5299,3.5415,3.545,3.5477,3.5501,3.5462,3.5616,3.5631,3.5644,3.5693,3.5713,3.5484,3.5483,3.5483,3.5482,0,3.493,3.5,3.506,3.5126,3.517,3.5249,3.5262,3.5306,3.5301,3.5316,3.5414,3.5451,3.5518,3.5546,3.5541,3.5663,3.5645,3.5615,3.556,3.5668,3.5714,3.5733,3.549,3.5488,3.5487,3.5486,0,0,3.5092,3.5158,3.518,3.521,3.5265,3.5319,3.5397,3.5463,3.5502,3.5549,3.5616,3.5709,3.5682,3.5719,3.5719,3.5774,3.5885,3.5738,3.5739,3.5764,3.6022,3.6044,3.6066,3.5873,3.5877,3.588,3.6018,0,3.5224,3.5361,3.5364,3.549,3.5555,3.5533,3.5602,3.5643,3.566,3.5718,3.5737,3.5803,3.5762,3.5785,3.5838,3.586,3.5937,3.585,3.5935,3.5938,3.5923,3.609,3.6113,3.6242,3.6036,3.6039,3.6041,0,3.5396,3.5449,3.5581,3.5627,3.5654,3.5716,3.5777,3.5833,3.5879,3.5888,3.593,3.5922,3.6003,3.5945,3.6056,3.5997,3.6032,3.6049,3.6054,3.6062,3.5996,3.6102,3.6283,3.6302,3.607,3.6067,3.6065,0,3.5501,3.5606,3.5699,3.5725,3.5781,3.5825,3.585,3.5893,3.5933,3.5987,3.6013,3.6075,3.611,3.6159,3.6168,3.6125,3.628,3.6223,3.629,3.629,3.6324,3.6321,3.6512,3.6346,3.6346,3.6346,3.6345,0,3.5648,3.573,3.5747,3.5805,3.5896,3.5899,3.599,3.6012,3.6051,3.6113,3.6098,3.6156,3.6165,3.6225,3.6233,3.6325,3.6341,3.635,3.6351,3.6352,3.635,3.6374,3.6366,3.6351,3.635,3.6349,3.6348,0,3.5781,3.5796,3.5896,3.5941,3.5954,3.602,3.6058,3.6114,3.6129,3.6207,3.6226,3.6251,3.6321,3.6335,3.6419,3.6424,3.6534,3.6526,3.6518,3.6517,3.6584,3.6577,3.6797,3.6826,3.6641,3.6642,3.6644,0,3.5874,3.5937,3.5988,3.6028,3.6056,3.6121,3.6161,3.6167,3.621,3.6269,3.6317,3.6386,3.6442,3.6556,3.6582,3.6646,3.664,3.6712,3.6649,3.6648,3.6641,3.6637,3.6644,3.6724,3.6726,3.6728,3.6729,0,3.6037,3.6042,3.61,3.6162,3.6211,3.626,3.6307,3.6341,3.6353,3.6402,3.6474,3.6518,3.6603,3.6672,3.6737,3.6763,3.6749,3.6749,3.6768,3.6769,3.6762,3.6767,3.6551,3.6744,3.6742,3.6741,3.674,3.674,3.6153,3.6208,3.6253,3.6319,3.6355,3.6399,3.6453,3.6476,3.6536,3.6606,3.6606,3.6685,3.6732,3.6816,3.6847,3.691,3.6887,3.6914,3.6921,3.6928,3.6934,3.6752,3.6921,3.6921,3.6921,3.692,3.692,0,3.6316,3.6344,3.6405,3.647,3.6523,3.6504,3.6555,3.6601,3.667,3.6714,3.677,3.6853,3.692,3.6952,3.7018,3.7062,3.7057,3.708,3.7076,3.7083,3.6951,3.6928,3.7082,3.7082,3.7082,3.7082,3.7082,3.7082,3.6406,3.6498,3.6508,3.6618,3.6646,3.6723,3.6754,3.6795,3.683,3.6924,3.698,3.7,3.7039,3.7109,3.717,3.7177,3.7203,3.7228,3.7233,3.7109,3.7092,3.7076,3.7055,3.7234,3.7234,3.736,3.7361,3.7362]},{"header":{"parameterUnit":"m.s-1","parameterCategory":1,"la1":30.2991,"la2":30.254,"lo1":-89.0895,"lo2":-89.0444,"dy":0.0017,"dx":0.0017,"nx":28,"ny":28,"refTime":"2025-03-17T03:00:00:Z","depth":0,"parameterNumber":3,"parameterNumberName":"V-component_of_WINDS"},"data":[0,0,0,0,0,0,0,0,0,0,0,0,0,0,0,0,0,0,0,0,0,0,0,0,0,0,0,0,0,0,0,0,0,0,0,0,0,0,0,0,0,0,0,0,0,0,0,0,0,0,0,0,0,0,0,0,0,0,-4.3223,-4.3225,0,-4.3475,-4.3478,-4.3481,-4.3478,-4.3475,-4.3472,-4.3469,-4.3732,-4.3742,-4.3752,0,0,0,0,0,0,0,0,0,0,0,0,0,-4.2744,-4.2752,-4.3222,-4.3226,-4.3229,-4.3475,-4.3478,-4.3482,-4.3479,-4.3475,-4.3471,-4.3467,-4.3728,-4.374,-4.3753,0,0,0,0,0,0,0,0,0,0,0,0,0,-4.297,-4.2755,-4.3222,-4.3257,-4.3263,-4.3474,-4.3478,-4.3482,-4.348,-4.3475,-4.347,-4.3465,-4.3724,-4.3739,-4.3754,-4.3948,0,0,-4.3801,-4.3807,0,0,0,0,0,0,0,0,-4.2957,-4.2987,-4.3249,-4.3255,-4.3262,-4.344,-4.3406,-4.3639,-4.3481,-4.3398,-4.3469,-4.3463,-4.3639,-4.3661,-4.3719,-4.3961,-4.3972,-4.3802,-4.3811,-4.3818,-4.3822,0,0,0,0,0,0,0,-4.2941,-4.2976,-4.3323,-4.3253,-4.3261,-4.3262,-4.3289,-4.345,-4.3544,-4.3405,-4.3405,-4.3435,-4.3642,-4.3705,-4.3726,-4.3976,-4.3802,-4.3815,-4.3824,-4.383,-4.4392,-4.4397,0,0,0,0,0,0,-4.2917,-4.2963,-4.3315,-4.333,-4.3094,-4.3275,-4.3304,-4.3388,-4.3542,-4.356,-4.3439,-4.3434,-4.3681,-4.3708,-4.3735,-4.3974,-4.3818,-4.3832,-4.3841,-4.4386,-4.4393,-4.4399,0,0,0,0,0,0,-4.2907,-4.2949,-4.3304,-4.3147,-4.3192,-4.3288,-4.3382,-4.3396,-4.3459,-4.3567,-4.3585,-4.3486,-4.3678,-4.3714,-4.3896,-4.3983,-4.3839,-4.3852,-4.4379,-4.4388,-4.4396,-4.4453,0,0,0,0,0,0,-4.2893,-4.2945,-4.3019,-4.3149,-4.3201,-4.346,-4.3388,-4.3404,-4.3484,-4.348,-4.3616,-4.3634,-4.3677,-4.3873,-4.3911,-4.4002,-4.3864,-4.4372,-4.4383,-4.4393,-4.4444,-4.4463,-4.4479,0,0,0,0,0,-4.2876,-4.3025,-4.3022,-4.3065,-4.3294,-4.3464,-4.3495,-4.354,-4.3491,-4.3567,-4.3637,-4.363,-4.3967,-4.3892,-4.3934,-4.4031,-4.4367,-4.438,-4.4393,-4.4436,-4.4459,-4.4479,0,0,0,0,0,0,-4.2905,-4.3043,-4.3041,-4.3236,-4.3338,-4.3464,-4.3561,-4.3562,-4.3682,-4.3673,-4.3726,-4.3757,-4.3939,-4.4003,-4.3916,-4.4228,-4.4161,-4.4183,-4.418,-4.4202,-4.4219,-4.4201,-4.3877,0,0,0,0,0,-4.2933,-4.3058,-4.3173,-4.3334,-4.3385,-4.3464,-4.354,-4.3566,-4.3675,-4.3718,-4.3802,-4.3909,-4.4039,-4.4124,-4.425,-4.4453,-4.4484,-4.454,-4.4558,-4.4572,-4.4591,-4.4705,-4.4732,-4.4442,-4.4442,-4.4442,0,0,-4.2995,-4.3085,-4.3161,-4.3342,-4.3424,-4.3555,-4.3501,-4.364,-4.3738,-4.374,-4.3917,-4.3982,-4.4105,-4.4299,-4.4389,-4.4358,-4.4678,-4.4588,-4.4598,-4.4611,-4.4721,-4.4749,-4.4773,-4.4451,-4.4449,-4.4448,0,0,-4.3173,-4.3253,-4.3397,-4.348,-4.3605,-4.3657,-4.3691,-4.3817,-4.386,-4.4038,-4.4042,-4.416,-4.4383,-4.4471,-4.4545,-4.4757,-4.4756,-4.4797,-4.4889,-4.5,-4.5023,-4.5043,-4.5121,-4.5148,-4.4815,-4.4815,-4.4816,0,-4.3233,-4.3428,-4.3471,-4.3612,-4.3692,-4.3698,-4.3846,-4.3925,-4.4085,-4.4141,-4.4104,-4.4385,-4.4468,-4.4684,-4.4736,-4.4795,-4.4838,-4.4782,-4.5015,-4.5037,-4.5056,-4.5131,-4.516,-4.482,-4.4819,-4.4819,-4.4818,0,-4.3498,-4.3633,-4.3734,-4.3887,-4.3979,-4.4122,-4.4189,-4.4277,-4.4295,-4.4351,-4.4534,-4.4634,-4.4781,-4.4833,-4.4853,-4.5053,-4.503,-4.5004,-4.4938,-4.5088,-4.5159,-4.5188,-4.4826,-4.4824,-4.4823,-4.4822,0,0,-4.3702,-4.3877,-4.3913,-4.3984,-4.4122,-4.4228,-4.4373,-4.4515,-4.4591,-4.4701,-4.4825,-4.5013,-4.499,-4.5074,-4.5104,-4.5201,-4.5365,-4.5163,-4.5167,-4.5199,-4.5594,-4.5615,-4.5647,-4.5364,-4.537,-4.5374,-4.5585,0,-4.3896,-4.4151,-4.4194,-4.4418,-4.4545,-4.4553,-4.4679,-4.4778,-4.4835,-4.4952,-4.5014,-4.5148,-4.5106,-4.5157,-4.5253,-4.5325,-4.5446,-4.531,-4.5483,-4.5488,-4.5453,-4.5684,-4.5706,-4.59,-4.5613,-4.5617,-4.5621,0,-4.4157,-4.4273,-4.4509,-4.4632,-4.4686,-4.4799,-4.4934,-4.5044,-4.5158,-4.5193,-4.5287,-4.5305,-4.5458,-4.5383,-4.5595,-4.5502,-4.5575,-4.5621,-4.563,-4.5649,-4.5565,-4.5712,-4.5962,-4.5992,-4.5665,-4.5661,-4.5658,0,-4.4285,-4.45,-4.467,-4.4729,-4.4876,-4.4955,-4.502,-4.5128,-4.5212,-4.533,-4.5385,-4.552,-4.5595,-4.57,-4.5755,-4.5695,-4.5964,-4.5894,-4.5999,-4.5998,-4.6057,-4.6053,-4.6325,-4.61,-4.61,-4.6099,-4.6099,0,-4.4498,-4.4643,-4.4729,-4.4834,-4.4997,-4.5046,-4.5206,-4.527,-4.5367,-4.5486,-4.5501,-4.5612,-4.5677,-4.5799,-4.5843,-4.6013,-4.6046,-4.608,-4.6091,-4.608,-4.6076,-4.613,-4.6119,-4.6107,-4.6105,-4.6104,-4.6103,0,-4.4669,-4.4732,-4.4918,-4.5041,-4.5075,-4.5191,-4.5297,-4.54,-4.5455,-4.5606,-4.5644,-4.5732,-4.5877,-4.5941,-4.6119,-4.6149,-4.6344,-4.6344,-4.6305,-4.631,-4.6412,-4.6402,-4.673,-4.6777,-4.6519,-4.6521,-4.6523,0,-4.4802,-4.4914,-4.5049,-4.5128,-4.5195,-4.5324,-4.5409,-4.5461,-4.555,-4.5688,-4.5775,-4.5919,-4.6038,-4.6268,-4.6349,-4.6486,-4.6491,-4.6596,-4.6512,-4.6498,-4.6495,-4.6489,-4.6502,-4.6612,-4.6615,-4.6617,-4.6618,0,-4.5033,-4.5058,-4.5179,-4.5312,-4.5412,-4.552,-4.5625,-4.569,-4.576,-4.5859,-4.6005,-4.6097,-4.6278,-4.6422,-4.6564,-4.6634,-4.664,-4.6644,-4.6676,-4.6668,-4.6642,-4.666,-4.635,-4.6637,-4.6635,-4.6634,-4.6633,-4.6632,-4.5191,-4.5291,-4.5402,-4.5536,-4.5621,-4.5719,-4.5822,-4.589,-4.6013,-4.6164,-4.6188,-4.6345,-4.6458,-4.6649,-4.6724,-4.6849,-4.6824,-4.6869,-4.6882,-4.6893,-4.69,-4.662,-4.6875,-4.6874,-4.6874,-4.6873,-4.6873,0,-4.5424,-4.5495,-4.5618,-4.5765,-4.5872,-4.5865,-4.5981,-4.6072,-4.6209,-4.6313,-4.6429,-4.6599,-4.6738,-4.683,-4.6972,-4.7055,-4.7062,-4.7091,-4.7087,-4.7103,-4.6913,-4.6872,-4.7084,-4.7084,-4.7083,-4.7083,-4.7083,-4.7083,-4.5558,-4.5727,-4.5766,-4.5979,-4.605,-4.6203,-4.627,-4.6362,-4.6445,-4.6633,-4.6749,-4.6807,-4.6908,-4.7057,-4.7186,-4.721,-4.7262,-4.7294,-4.7317,-4.7138,-4.7116,-4.7095,-4.7057,-4.7304,-4.7304,-4.7497,-4.7498,-4.75]}]]